+ View the NASA Portal
+ Center for Near-Earth Object Studies
IMPORTANT:
The SSD Announcement email list is now available. Major changes are coming in the near future, including possible hostname and/or URL changes. To be notified of such changes, subscribe to this email list.
Please visit
this page
for more details.
Don't show this message again
JPL Small-Body Database Browser
Search:
[
help
]
266069 (2006 RC11)
Classification:
Main-belt Asteroid
SPK-ID:
2266069
[
Ephemeris
|
Orbit Diagram
|
Orbital Elements
|
Mission Design
|
Physical Parameters
|
Discovery Circumstances
|
Close-Approach Data
]
[ show orbit diagram ]
Orbital Elements at Epoch 2458600.5 (2019-Apr-27.0) TDB
Reference:
JPL 13
(heliocentric ecliptic J2000)
Element
Value
Uncertainty (1-sigma)
Units
e
.2042482446070027
4.857e-08
a
2.351856591534617
1.2509e-08
au
q
1.871494011146263
1.1119e-07
au
i
4.502445069018407
5.2109e-06
deg
node
157.7128760089593
6.1907e-05
deg
peri
198.4211317389476
6.3002e-05
deg
M
175.896678643007
1.1871e-05
deg
t
p
2457956.820289871607
(2017-Jul-22.32028987)
4.1847e-05
TDB
period
1317.39096743561
3.61
1.051e-05
2.877e-08
d
yr
n
.2732673966186092
2.1802e-09
deg/d
Q
2.832219171922972
1.5064e-08
au
Orbit Determination Parameters
# obs. used (total)
218
data-arc span
6587 days (18.03 yr)
first obs. used
2001-03-25
last obs. used
2019-04-07
planetary ephem.
DE431
SB-pert. ephem.
SB431-N16
condition code
0
norm. resid. RMS
.61068
source
ORB
producer
Otto Matic
solution date
2019-Jul-14 07:46:20
Additional Information
Earth MOID
= .866643 au
Jupiter MOID
= 2.60738 au
T_jup
= 3.525
[ show covariance matrix ]
[
Ephemeris
|
Orbit Diagram
|
Orbital Elements
|
Mission Design
|
Physical Parameters
|
Discovery Circumstances
|
Close-Approach Data
]
Physical Parameter Table
Parameter
Symbol
Value
Units
Sigma
Reference
Notes
absolute magnitude
H
17.5
n/a
MPO427478
266069 (2006 RC11)
Discovered 2006-Sep-12 by CSS at Catalina
Reference:
20110218/Numbers.arc
Last Updated:
2011-02-22
[ show close-approach data ]
[
Ephemeris
|
Orbit Diagram
|
Orbital Elements
|
Mission Design
|
Physical Parameters
|
Discovery Circumstances
|
Close-Approach Data
]
2019-Dec-10 21:55 UT
(server date/time)
Site Manager:
Ryan S. Park
Webmaster
:
Alan B. Chamberlin